SR9WXM Weather Reports


time (UTC)temp
C
wind
direction
speed
KPH
gust
KPH
rain 1hr
cm
rain 24hr
cm
rain mn
cm
humidity
%
barometer
mb
20260508012854 6 318 1.6 3.2 0.00 0.00 0.00 100
20260508012453 6 315 1.6 3.2 0.00 0.00 0.00 100
20260508012053 6 328 1.6 3.2 0.00 0.00 0.00 100
20260508011653 6 21 1.6 3.2 0.00 0.00 0.00 100
20260508011251 6 5 1.6 1.6 0.00 0.00 0.00 100
20260508010851 6 293 0.0 0.0 0.00 0.00 0.00 100
20260508010450 6 292 0.0 1.6 0.00 0.00 0.00 100
20260508010050 6 291 1.6 1.6 0.00 0.00 0.00 100
20260508005651 6 348 1.6 4.8 0.00 0.00 0.00 100
20260508005249 6 348 1.6 4.8 0.00 0.00 0.00 100
20260508004849 6 347 1.6 4.8 0.00 0.00 0.00 100
20260508004448 6 346 1.6 3.2 0.00 0.00 0.00 100
20260508004048 6 352 3.2 4.8 0.00 0.00 0.00 100
20260508003648 6 327 3.2 6.4 0.00 0.00 0.00 100
20260508003246 6 69 0.0 1.6 0.00 0.00 0.00 100
20260508002846 6 69 1.6 1.6 0.00 0.00 0.00 100
20260508002446 6 71 1.6 3.2 0.00 0.00 0.00 100
20260508002046 6 71 0.0 1.6 0.00 0.00 0.00 100
20260508001646 6 69 0.0 3.2 0.00 0.00 0.00 100
20260508001244 6 69 1.6 1.6 0.00 0.00 0.00 100
20260508000844 6 69 1.6 3.2 0.00 0.00 0.00 100
20260508000444 6 69 3.2 6.4 0.00 0.00 0.00 100
20260508000043 7 69 3.2 6.4 0.00 0.00 0.00 100
20260507235643 7 69 3.2 3.2 0.00 0.00 0.00 100
20260507235241 7 71 3.2 4.8 0.00 0.00 0.00 100
20260507234841 7 69 3.2 3.2 0.00 0.00 0.00 100
20260507234442 7 69 1.6 1.6 0.00 0.00 0.00 100
20260507234041 7 46 3.2 6.4 0.00 0.00 0.00 100
20260507233641 7 21 3.2 4.8 0.00 0.00 0.00 100
20260507233239 7 26 3.2 6.4 0.00 0.00 0.00 100
20260507232839 7 9 3.2 6.4 0.00 0.00 0.00 100
20260507232439 7 346 3.2 8.0 0.00 0.00 0.00 100
20260507232039 6 30 3.2 6.4 0.00 0.00 0.00 100
20260507231639 6 33 4.8 8.0 0.00 0.00 0.00 100
20260507231228 6 64 4.8 9.7 0.00 0.00 0.00 100
20260507230828 6 63 3.2 8.0 0.00 0.00 0.00 100
20260507230428 6 88 8.0 12.9 0.00 0.00 0.00 100
20260507230027 6 75 3.2 4.8 0.00 0.00 0.00 100
20260507225628 6 47 3.2 4.8 0.00 0.00 0.00 100
20260507225226 6 74 3.2 3.2 0.00 0.00 0.00 100
20260507224826 6 68 3.2 6.4 0.00 0.00 0.00 100
20260507224426 6 74 3.2 6.4 0.00 0.00 0.00 100
20260507224026 6 70 3.2 4.8 0.00 0.00 0.00 100
20260507223626 6 72 3.2 9.7 0.00 0.00 0.00 100
20260507223224 6 72 6.4 12.9 0.00 0.00 0.00 100
20260507222824 6 67 8.0 14.5 0.00 0.00 0.00 100
20260507222424 7 69 4.8 11.3 0.00 0.00 0.00 100
20260507222023 7 53 3.2 6.4 0.00 0.00 0.00 100
20260507221623 7 73 8.0 12.9 0.00 0.00 0.00 100
20260507221221 7 65 8.0 14.5 0.00 0.00 0.00 100
20260507220821 7 57 6.4 9.7 0.00 0.00 0.00 100
20260507220421 7 70 4.8 9.7 0.00 0.00 0.00 100
20260507220021 7 72 8.0 12.9 0.00 0.00 0.00 100
20260507215620 7 64 6.4 12.9 0.00 0.00 0.00 100
20260507215219 7 74 6.4 12.9 0.00 0.00 0.00 100
20260507214819 7 47 9.7 16.1 0.00 0.00 0.00 100
20260507214418 7 61 9.7 16.1 0.00 0.00 0.00 100
20260507214016 7 59 9.7 16.1 0.00 0.00 0.00 100
20260507213616 7 72 9.7 19.3 0.00 0.00 0.00 100
20260507213214 7 58 9.7 14.5 0.00 0.00 0.00 100
20260507212814 7 75 8.0 11.3 0.00 0.00 0.00 100
20260507212414 7 51 11.3 19.3 0.00 0.00 0.00 100
20260507212014 7 55 8.0 12.9 0.00 0.00 0.00 100
20260507211614 7 32 8.0 12.9 0.00 0.00 0.00 100
20260507211212 7 23 11.3 16.1 0.00 0.00 0.00 100
20260507210812 7 21 8.0 11.3 0.00 0.00 0.00 100
20260507210411 7 31 6.4 9.7 0.00 0.00 0.00 100
20260507210011 7 27 6.4 9.7 0.00 0.00 0.00 100
20260507205612 7 16 8.0 9.7 0.00 0.00 0.00 100
20260507205210 7 12 8.0 12.9 0.00 0.00 0.00 100
20260507204810 7 17 8.0 9.7 0.00 0.00 0.00 100
20260507204410 7 17 8.0 11.3 0.00 0.00 0.00 100
20260507204010 7 25 6.4 9.7 0.00 0.00 0.00 100
20260507203602 7 22 6.4 8.0 0.00 0.00 0.00 100
20260507203201 7 0 4.8 9.7 0.00 0.00 0.00 100
20260507202801 7 330 3.2 9.7 0.00 0.00 0.00 100
20260507202401 7 326 3.2 9.7 0.00 0.00 0.00 100
20260507202000 7 286 4.8 8.0 0.00 0.00 0.00 100
20260507201600 7 275 4.8 9.7 0.00 0.00 0.00 100
20260507201158 7 261 6.4 11.3 0.00 0.00 0.00 100
20260507200758 7 263 6.4 9.7 0.00 0.00 0.00 100
20260507200358 8 241 8.0 17.7 0.00 0.00 0.00 100
20260507195958 8 214 9.7 16.1 0.00 0.00 0.00 100
20260507195558 8 267 8.0 12.9 0.00 0.00 0.00 100
20260507195156 8 275 8.0 12.9 0.00 0.00 0.00 100
20260507194756 8 262 8.0 16.1 0.00 0.00 0.00 100
20260507194356 8 260 8.0 12.9 0.00 0.00 0.00 100
20260507193956 8 221 9.7 19.3 0.00 0.00 0.00 100
20260507193556 8 270 11.3 17.7 0.00 0.00 0.00 100
20260507193155 8 147 8.0 14.5 0.00 0.00 0.00 100
20260507192755 8 71 9.7 12.9 0.00 0.00 0.00 100
20260507192355 8 49 8.0 11.3 0.00 0.00 0.00 100
20260507191955 8 236 8.0 14.5 0.00 0.00 0.00 100
20260507191555 8 64 8.0 11.3 0.00 0.00 0.00 100
20260507191153 8 113 9.7 11.3 0.00 0.00 0.00 100
20260507190753 8 60 8.0 11.3 0.00 0.00 0.00 100
20260507190353 8 118 9.7 12.9 0.00 0.00 0.00 100
20260507185953 8 59 9.7 16.1 0.00 0.00 0.00 100
20260507185553 8 75 9.7 12.9 0.00 0.00 0.00 100
20260507185151 8 188 9.7 14.5 0.00 0.00 0.00 100
20260507184750 8 121 9.7 14.5 0.00 0.00 0.00 100
20260507184350 8 177 9.7 14.5 0.00 0.00 0.00 100
20260507183950 7 180 9.7 16.1 0.00 0.00 0.00 100
20260507183550 7 161 11.3 14.5 0.00 0.00 0.00 100
20260507183148 7 210 11.3 16.1 0.00 0.00 0.00 100
20260507182748 7 163 12.9 16.1 0.00 0.00 0.00 100
20260507182348 7 174 11.3 16.1 0.00 0.00 0.00 100
20260507181948 7 204 11.3 17.7 0.00 0.00 0.00 100
20260507181548 7 202 12.9 20.9 0.00 0.00 0.00 100
20260507181147 7 189 12.9 20.9 0.00 0.00 0.00 100
20260507180747 7 192 12.9 19.3 0.00 0.00 0.00 100
20260507180347 7 182 11.3 16.1 0.00 0.00 0.00 100
20260507175938 7 177 11.3 19.3 0.00 0.00 0.00 100
20260507175538 7 141 11.3 16.1 0.00 0.00 0.00 100
20260507175135 7 125 12.9 17.7 0.00 0.00 0.00 100
20260507174735 7 195 9.7 14.5 0.00 0.00 0.00 100
20260507174335 7 180 14.5 19.3 0.00 0.00 0.00 100
20260507173935 7 170 12.9 17.7 0.00 0.00 0.00 100
20260507173535 7 143 9.7 14.5 0.00 0.00 0.00 100
20260507173133 7 195 11.3 17.7 0.00 0.00 0.00 100
20260507172731 7 140 12.9 17.7 0.00 0.00 0.00 100
20260507172331 7 199 12.9 19.3 0.00 0.00 0.00 100
20260507171930 7 146 9.7 12.9 0.00 0.00 0.00 100
20260507171530 7 209 12.9 17.7 0.00 0.00 0.00 100
20260507171128 7 201 9.7 14.5 0.00 0.00 0.00 100
20260507170728 7 190 11.3 16.1 0.00 0.00 0.00 100
20260507170330 7 180 9.7 14.5 0.00 0.00 0.00 100
20260507165928 7 206 9.7 14.5 0.00 0.00 0.00 100
20260507165528 7 194 11.3 17.7 0.00 0.00 0.00 100
20260507165126 7 197 9.7 14.5 0.00 0.00 0.00 100
20260507164726 7 182 9.7 16.1 0.00 0.00 0.00 100
20260507164326 7 217 9.7 12.9 0.00 0.00 0.00 100
20260507163927 7 211 9.7 12.9 0.00 0.00 0.00 100
20260507163527 7 208 8.0 11.3 0.00 0.00 0.00 100
20260507163125 7 176 11.3 14.5 0.00 0.00 0.00 100
20260507162725 7 149 11.3 16.1 0.00 0.00 0.00 100
20260507162325 7 198 9.7 12.9 0.00 0.00 0.00 100
20260507161925 7 141 11.3 14.5 0.00 0.00 0.00 100
20260507161525 7 96 9.7 17.7 0.00 0.00 0.00 100
20260507161123 7 161 11.3 14.5 0.00 0.00 0.00 100
20260507160723 7 127 12.9 22.5 0.00 0.00 0.00 100
20260507160323 8 117 11.3 16.1 0.00 0.00 0.00 100
20260507155923 8 210 8.0 11.3 0.00 0.00 0.00 100
20260507155610 9 63 8.0 11.3 0.00 0.00 0.00 100
20260507155523 9 63 8.0 11.3 0.00 0.00 0.00 100
20260507155121 9 238 6.4 9.7 0.00 0.00 0.00 100
20260507154724 9 225 3.2 4.8 0.00 0.00 0.00 100
20260507154322 8 225 0.0 0.0 0.00 0.00 0.00 100
20260507153922 8 225 0.0 0.0 0.00 0.00 0.00 100
20260507153522 8 225 1.6 3.2 0.00 0.00 0.00 100
20260507153120 8 214 8.0 9.7 0.00 0.00 0.00 100
20260507152720 8 189 8.0 11.3 0.00 0.00 0.00 100
20260507152310 8 192 11.3 16.1 0.00 0.00 0.00 100
20260507151910 8 114 11.3 14.5 0.00 0.00 0.00 100
20260507151510 8 73 9.7 12.9 0.00 0.00 0.00 100
20260507151108 8 199 11.3 14.5 0.00 0.00 0.00 100
20260507150708 9 86 9.7 11.3 0.00 0.00 0.00 100
20260507150307 9 151 9.7 16.1 0.00 0.00 0.00 100
20260507145907 9 104 8.0 12.9 0.00 0.00 0.00 100
20260507145507 10 0 8.0 9.7 0.00 0.00 0.00 100
20260507145105 10 33 8.0 14.5 0.00 0.00 0.00 100
20260507144705 10 204 8.0 11.3 0.00 0.00 0.00 100
20260507144306 10 193 8.0 14.5 0.00 0.00 0.00 100
20260507143905 10 202 11.3 14.5 0.00 0.00 0.00 100
20260507143505 10 210 9.7 14.5 0.00 0.00 0.00 100
20260507143103 10 207 8.0 12.9 0.00 0.00 0.00 100
20260507142703 10 185 6.4 11.3 0.00 0.00 0.00 100
20260507142306 10 209 9.7 11.3 0.00 0.00 0.00 100
20260507141903 10 203 8.0 12.9 0.00 0.00 0.00 100
20260507141503 10 211 6.4 8.0 0.00 0.00 0.00 100
20260507141101 9 202 4.8 8.0 0.00 0.00 0.00 100
20260507140701 10 215 4.8 9.7 0.00 0.00 0.00 100
20260507140301 10 207 6.4 9.7 0.00 0.00 0.00 100
20260507135902 10 72 6.4 11.3 0.00 0.00 0.00 100
20260507135502 9 143 8.0 9.7 0.00 0.00 0.00 100
20260507135059 9 25 9.7 12.9 0.00 0.00 0.00 100
20260507134659 9 352 9.7 12.9 0.00 0.00 0.00 100
20260507134259 9 322 8.0 9.7 0.00 0.00 0.00 100
20260507133859 8 165 9.7 12.9 0.00 0.00 0.00 100
20260507133459 8 21 8.0 11.3 0.00 0.00 0.00 100
20260507133057 8 253 8.0 9.7 0.00 0.00 0.00 100
20260507132657 9 100 9.7 11.3 0.00 0.00 0.00 100
20260507132257 9 172 9.7 16.1 0.00 0.00 0.00 100
20260507131855 8 154 12.9 19.3 0.00 0.00 0.00 100
20260507131455 8 169 11.3 16.1 0.00 0.00 0.00 100
20260507131053 8 161 11.3 12.9 0.00 0.00 0.00 100
20260507130653 8 124 11.3 14.5 0.00 0.00 0.00 100
20260507130253 8 246 11.3 17.7 0.00 0.00 0.00 100
20260507125853 8 226 8.0 14.5 0.00 0.00 0.00 100
20260507125453 8 267 9.7 16.1 0.00 0.00 0.00 100
20260507125042 8 265 6.4 9.7 0.00 0.00 0.00 100
20260507124642 8 253 8.0 12.9 0.00 0.00 0.00 100
20260507124242 9 253 9.7 17.7 0.00 0.00 0.00 100
20260507123842 9 238 14.5 25.7 0.00 0.00 0.00 100
20260507123442 9 188 11.3 16.1 0.00 0.00 0.00 100
20260507123040 9 238 9.7 19.3 0.00 0.00 0.00 100
20260507122639 9 37 6.4 11.3 0.00 0.00 0.00 100
20260507122239 9 244 6.4 9.7 0.00 0.00 0.00 100
20260507121839 9 282 6.4 9.7 0.00 0.00 0.00 100
20260507121439 9 263 9.7 11.3 0.00 0.00 0.00 100
20260507121037 8 240 8.0 11.3 0.00 0.00 0.00 100
20260507120637 8 251 8.0 9.7 0.00 0.00 0.00 100
20260507120237 9 251 6.4 9.7 0.00 0.00 0.00 100
20260507115836 9 235 12.9 22.5 0.00 0.00 0.00 100
20260507115436 9 237 14.5 25.7 0.00 0.00 0.00 100
20260507115035 9 240 6.4 9.7 0.00 0.00 0.00 100
20260507114635 9 270 4.8 8.0 0.00 0.00 0.00 100
20260507114235 9 286 4.8 8.0 0.00 0.00 0.00 100
20260507113834 9 243 4.8 8.0 0.00 0.00 0.00 100
20260507113434 9 288 4.8 8.0 0.00 0.00 0.00 100
20260507113033 10 295 3.2 6.4 0.00 0.00 0.00 100
20260507112632 10 278 4.8 9.7 0.00 0.00 0.00 100
20260507112232 10 245 6.4 9.7 0.00 0.00 0.00 100
20260507111835 10 266 6.4 9.7 0.00 0.00 0.00 100
20260507111432 10 232 8.0 12.9 0.00 0.00 0.00 100
20260507111030 10 260 9.7 32.2 0.00 0.00 0.00 100
20260507110630 10 260 6.4 9.7 0.00 0.00 0.00 100
20260507110230 10 288 4.8 9.7 0.00 0.00 0.00 100
20260507105829 10 288 6.4 11.3 0.00 0.00 0.00 100
20260507105429 11 251 8.0 9.7 0.00 0.00 0.00 100
20260507105027 11 265 4.8 8.0 0.00 0.00 0.00 100
20260507104627 11 255 4.8 11.3 0.00 0.00 0.00 100
20260507104227 11 310 6.4 11.3 0.00 0.00 0.00 100
20260507103827 11 273 6.4 11.3 0.00 0.00 0.00 100
20260507103427 11 304 6.4 12.9 0.00 0.00 0.00 100
20260507103025 11 20 3.2 8.0 0.00 0.00 0.00 100
20260507102625 11 261 6.4 16.1 0.00 0.00 0.00 100
20260507102225 11 208 6.4 11.3 0.00 0.00 0.00 100
20260507101826 11 215 4.8 8.0 0.00 0.00 0.00 100
20260507101418 11 234 4.8 9.7 0.00 0.00 0.00 100
20260507101016 11 251 8.0 9.7 0.00 0.00 0.00 100
20260507100616 11 227 8.0 14.5 0.00 0.00 0.00 100
20260507100216 11 221 8.0 11.3 0.00 0.00 0.00 100
20260507095816 11 274 11.3 16.1 0.00 0.00 0.00 100
20260507095415 11 188 9.7 16.1 0.00 0.00 0.00 100
20260507095014 11 278 8.0 12.9 0.00 0.00 0.00 100
20260507094614 12 266 6.4 9.7 0.00 0.00 0.00 100
20260507094214 12 253 8.0 14.5 0.00 0.00 0.00 100
20260507093814 12 260 3.2 6.4 0.00 0.00 0.00 100
20260507093413 12 308 0.0 1.6 0.00 0.00 0.00 100
20260507093011 11 309 1.6 3.2 0.00 0.00 0.00 100
20260507092611 11 309 1.6 3.2 0.00 0.00 0.00 100
20260507092211 12 270 4.8 6.4 0.00 0.00 0.00 100
20260507091811 12 289 3.2 8.0 0.00 0.00 0.00 100
20260507091411 12 326 4.8 8.0 0.00 0.00 0.00 100
20260507091009 12 281 1.6 3.2 0.00 0.00 0.00 100
20260507090607 11 289 4.8 8.0 0.00 0.00 0.00 100
20260507090207 11 301 1.6 3.2 0.00 0.00 0.00 100
20260507085807 11 265 4.8 8.0 0.00 0.00 0.00 100
20260507085407 11 262 4.8 6.4 0.00 0.00 0.00 100
20260507085005 11 294 4.8 8.0 0.00 0.00 0.00 100
20260507084605 11 299 3.2 4.8 0.00 0.00 0.00 100
20260507084205 11 266 6.4 9.7 0.00 0.00 0.00 100
20260507083804 11 272 3.2 4.8 0.00 0.00 0.00 100
20260507083404 10 276 4.8 6.4 0.00 0.00 0.00 100
20260507083002 10 291 3.2 6.4 0.00 0.00 0.00 100
20260507082602 11 219 6.4 11.3 0.00 0.00 0.00 100
20260507082202 11 252 8.0 12.9 0.00 0.00 0.00 100
20260507081802 11 241 8.0 11.3 0.00 0.00 0.00 100
20260507081402 11 315 9.7 16.1 0.00 0.00 0.00 100
20260507081000 11 288 8.0 11.3 0.00 0.00 0.00 100
20260507080600 11 253 8.0 11.3 0.00 0.00 0.00 100
20260507080200 11 30 8.0 12.9 0.00 0.00 0.00 100
20260507075800 11 319 8.0 11.3 0.00 0.00 0.00 100
20260507075400 11 100 6.4 14.5 0.00 0.00 0.00 100
20260507074958 11 163 8.0 9.7 0.00 0.00 0.00 100
20260507074558 11 148 9.7 16.1 0.00 0.00 0.00 100
20260507074158 11 208 9.7 16.1 0.00 0.00 0.00 100
20260507073749 11 110 11.3 17.7 0.00 0.00 0.00 100
20260507073348 11 141 12.9 17.7 0.00 0.00 0.00 100
20260507072946 11 202 9.7 12.9 0.00 0.00 0.00 100
20260507072547 11 150 11.3 17.7 0.00 0.00 0.00 100
20260507072147 11 172 12.9 19.3 0.00 0.00 0.00 100
20260507071747 11 145 12.9 16.1 0.00 0.00 0.00 100
20260507071346 11 172 11.3 19.3 0.00 0.00 0.00 100
20260507070944 11 200 9.7 16.1 0.00 0.00 0.00 100
20260507070544 11 193 9.7 14.5 0.00 0.00 0.00 100
20260507070144 11 163 14.5 25.7 0.00 0.00 0.00 100
20260507065823 11 178 11.3 20.9 0.00 0.00 0.00 100
20260507065744 11 178 11.3 20.9 0.00 0.00 0.00 100
20260507065344 11 164 12.9 20.9 0.00 0.00 0.00 100
20260507064942 11 167 12.9 27.4 0.00 0.00 0.00 100
20260507064542 11 183 12.9 19.3 0.00 0.00 0.00 100
20260507064142 11 210 14.5 22.5 0.00 0.00 0.00 100
20260507063742 11 152 16.1 22.5 0.00 0.00 0.00 100
20260507063341 11 183 16.1 29.0 0.00 0.00 0.00 100
20260507062940 11 176 17.7 30.6 0.00 0.00 0.00 100
20260507062542 11 140 17.7 24.1 0.00 0.00 0.00 100
20260507062139 11 181 14.5 24.1 0.00 0.00 0.00 100
20260507061739 10 149 14.5 25.7 0.00 0.00 0.00 100
20260507061340 10 176 11.3 14.5 0.00 0.00 0.00 100
20260507060937 10 138 17.7 30.6 0.00 0.00 0.00 100
20260507060537 10 168 14.5 20.9 0.00 0.00 0.00 100
20260507060137 10 178 12.9 20.9 0.00 0.00 0.00 100
20260507055737 10 177 12.9 24.1 0.00 0.00 0.00 100
20260507055337 10 158 14.5 19.3 0.00 0.00 0.00 100
20260507054935 10 195 16.1 24.1 0.00 0.00 0.00 100
20260507054535 10 172 12.9 25.7 0.00 0.00 0.00 100
20260507054135 10 177 16.1 19.3 0.00 0.00 0.00 100
20260507053735 10 156 17.7 25.7 0.00 0.00 0.00 100
20260507053335 10 167 14.5 22.5 0.00 0.00 0.00 100
20260507052936 10 151 14.5 22.5 0.00 0.00 0.00 100
20260507052533 10 159 12.9 20.9 0.00 0.00 0.00 100
20260507052133 10 159 14.5 19.3 0.00 0.00 0.00 100
20260507051733 10 191 16.1 25.7 0.00 0.00 0.00 100
20260507051333 10 168 14.5 19.3 0.00 0.00 0.00 100
20260507050931 10 181 16.1 24.1 0.00 0.00 0.00 100
20260507050531 10 154 16.1 22.5 0.00 0.00 0.00 100
20260507050124 10 183 14.5 22.5 0.00 0.00 0.00 100
20260507045721 9 179 17.7 27.4 0.00 0.00 0.00 100
20260507045321 9 167 12.9 17.7 0.00 0.00 0.00 100
20260507044919 10 117 11.3 16.1 0.00 0.00 0.00 100
20260507044519 10 150 16.1 32.2 0.00 0.00 0.00 100
20260507044119 10 140 17.7 32.2 0.00 0.00 0.00 100
20260507043719 10 128 17.7 22.5 0.00 0.00 0.00 100
20260507043319 10 158 20.9 30.6 0.00 0.00 0.00 100
20260507042917 10 163 22.5 38.6 0.00 0.00 0.00 100
20260507042517 10 196 17.7 27.4 0.00 0.00 0.00 100
20260507042117 10 151 17.7 30.6 0.00 0.00 0.00 100
20260507041717 10 162 17.7 24.1 0.00 0.00 0.00 100
20260507041316 10 184 17.7 29.0 0.00 0.00 0.00 100
20260507040914 10 138 16.1 22.5 0.00 0.00 0.00 100
20260507040514 10 123 17.7 25.7 0.00 0.00 0.00 100
20260507040114 9 119 17.7 30.6 0.00 0.00 0.00 100
20260507035714 9 125 19.3 24.1 0.00 0.00 0.00 100
20260507035314 10 136 19.3 30.6 0.00 0.00 0.00 100
20260507034912 10 165 20.9 32.2 0.00 0.00 0.00 100
20260507034512 10 135 16.1 25.7 0.00 0.00 0.00 100
20260507034112 10 148 24.1 38.6 0.00 0.00 0.00 100
20260507033712 10 170 20.9 33.8 0.00 0.00 0.00 100
20260507033311 10 173 24.1 33.8 0.00 0.00 0.00 100
20260507032909 10 166 22.5 35.4 0.00 0.00 0.00 100
20260507032509 10 163 20.9 30.6 0.00 0.00 0.00 100
20260507032109 10 173 22.5 33.8 0.00 0.00 0.00 100
20260507031709 10 180 25.7 35.4 0.00 0.00 0.00 100
20260507031310 10 126 19.3 29.0 0.00 0.00 0.00 100
20260507030507 10 166 27.4 40.2 0.00 0.00 0.00 100
20260507030107 10 173 24.1 38.6 0.00 0.00 0.00 100
20260507025707 10 168 29.0 43.5 0.00 0.00 0.00 100
20260507025307 10 144 22.5 30.6 0.00 0.00 0.00 100
20260507024905 10 151 25.7 38.6 0.00 0.00 0.00 100
20260507024505 10 165 24.1 38.6 0.00 0.00 0.00 100
20260507024105 10 173 20.9 29.0 0.00 0.00 0.00 100
20260507023705 10 180 22.5 27.4 0.00 0.00 0.00 100
20260507023305 10 167 22.5 35.4 0.00 0.00 0.00 100
20260507022854 10 167 20.9 27.4 0.00 0.00 0.00 100
20260507022454 10 164 17.7 22.5 0.00 0.00 0.00 100
20260507022054 10 209 20.9 33.8 0.00 0.00 0.00 100
20260507021653 10 177 20.9 32.2 0.00 0.00 0.00 100
20260507021253 10 173 24.1 38.6 0.00 0.00 0.00 100
20260507020851 10 183 22.5 41.8 0.00 0.00 0.00 100
20260507020451 10 134 20.9 32.2 0.00 0.00 0.00 100
20260507020052 10 174 24.1 35.4 0.00 0.00 0.00 100
20260507015651 10 165 22.5 35.4 0.00 0.00 0.00 100
20260507015251 10 172 22.5 49.9 0.00 0.00 0.00 100
20260507014849 10 191 20.9 37.0 0.00 0.00 0.00 100
20260507014449 10 166 24.1 33.8 0.00 0.00 0.00 100
20260507014049 10 176 22.5 46.7 0.00 0.00 0.00 100
20260507013649 10 166 22.5 35.4 0.00 0.00 0.00 100
20260507013248 10 188 22.5 38.6 0.00 0.00 0.00 100